Time,TemperatureF,DewpointF,PressureIn,WindDirection,WindDirectionDegrees,WindSpeedMPH,WindSpeedGustMPH,Humidity,HourlyPrecipIn,Conditions,Clouds,dailyrainin,SoftwareType,DateUTC
2013-05-18 00:01:00,77.0,70.0,30.06,East,90,1.0,13.0,79,0.00,,,0.00,Rainwise IP-100,2013-05-18 04:01:00,
2013-05-18 00:06:00,77.0,69.7,30.06,SE,135,7.0,13.0,78,0.00,,,0.00,Rainwise IP-100,2013-05-18 04:06:00,
2013-05-18 00:11:00,77.0,69.0,30.06,SE,135,6.0,15.0,76,0.00,,,0.00,Rainwise IP-100,2013-05-18 04:11:00,
2013-05-18 00:16:00,77.0,69.3,30.06,East,90,9.0,14.0,77,0.00,,,0.00,Rainwise IP-100,2013-05-18 04:16:00,
2013-05-18 00:21:00,77.0,69.7,30.06,SE,135,8.0,12.0,78,0.00,,,0.00,Rainwise IP-100,2013-05-18 04:21:00,
2013-05-18 00:26:00,77.0,69.7,30.06,ESE,112,9.0,12.0,78,0.00,,,0.00,Rainwise IP-100,2013-05-18 04:26:00,
2013-05-18 00:31:00,77.0,69.0,30.06,SSE,157,10.0,15.0,76,0.00,,,0.00,Rainwise IP-100,2013-05-18 04:31:00,
2013-05-18 00:37:00,77.0,69.0,30.06,SSE,157,6.0,11.0,76,0.00,,,0.00,Rainwise IP-100,2013-05-18 04:37:00,
2013-05-18 00:42:00,77.0,69.0,30.06,ESE,112,6.0,12.0,76,0.00,,,0.00,Rainwise IP-100,2013-05-18 04:42:00,
2013-05-18 00:47:00,77.0,69.3,30.06,SE,135,7.0,11.0,77,0.00,,,0.00,Rainwise IP-100,2013-05-18 04:47:00,
2013-05-18 00:52:00,77.0,69.7,30.06,SE,135,9.0,11.0,78,0.00,,,0.00,Rainwise IP-100,2013-05-18 04:52:00,
2013-05-18 00:57:00,77.0,69.3,30.06,SSW,202,6.0,10.0,77,0.00,,,0.00,Rainwise IP-100,2013-05-18 04:57:00,
2013-05-18 01:02:00,77.0,69.3,30.06,ESE,112,9.0,9.0,77,0.00,,,0.00,Rainwise IP-100,2013-05-18 05:02:00,
2013-05-18 01:07:00,77.0,69.3,30.06,SSE,157,4.0,13.0,77,0.00,,,0.00,Rainwise IP-100,2013-05-18 05:07:00,
2013-05-18 01:13:00,77.0,69.3,30.06,South,180,7.0,9.0,77,0.00,,,0.00,Rainwise IP-100,2013-05-18 05:13:00,
2013-05-18 01:18:00,77.0,69.3,30.06,SE,135,9.0,9.0,77,0.00,,,0.00,Rainwise IP-100,2013-05-18 05:18:00,
2013-05-18 01:23:00,77.0,69.0,30.05,SE,135,3.0,10.0,76,0.00,,,0.00,Rainwise IP-100,2013-05-18 05:23:00,
2013-05-18 01:28:00,77.0,69.0,30.05,SE,135,6.0,10.0,76,0.00,,,0.00,Rainwise IP-100,2013-05-18 05:28:00,
2013-05-18 01:33:00,77.0,69.0,30.05,South,180,5.0,11.0,76,0.00,,,0.00,Rainwise IP-100,2013-05-18 05:33:00,
2013-05-18 01:38:00,77.0,69.0,30.05,South,180,7.0,10.0,76,0.00,,,0.00,Rainwise IP-100,2013-05-18 05:38:00,
2013-05-18 01:43:00,77.0,69.0,30.05,SE,135,4.0,10.0,76,0.00,,,0.00,Rainwise IP-100,2013-05-18 05:43:00,
2013-05-18 01:48:00,77.0,69.3,30.05,SSE,157,6.0,9.0,77,0.00,,,0.00,Rainwise IP-100,2013-05-18 05:48:00,
2013-05-18 01:54:00,77.0,69.3,30.05,SSE,157,2.0,9.0,77,0.00,,,0.00,Rainwise IP-100,2013-05-18 05:54:00,
2013-05-18 01:59:00,77.0,69.7,30.04,SE,135,5.0,9.0,78,0.00,,,0.00,Rainwise IP-100,2013-05-18 05:59:00,
2013-05-18 02:04:00,77.0,69.7,30.04,South,180,4.0,11.0,78,0.00,,,0.00,Rainwise IP-100,2013-05-18 06:04:00,
2013-05-18 02:09:00,77.0,70.0,30.04,ESE,112,7.0,12.0,79,0.00,,,0.00,Rainwise IP-100,2013-05-18 06:09:00,
2013-05-18 02:14:00,77.0,70.0,30.04,South,180,9.0,9.0,79,0.00,,,0.00,Rainwise IP-100,2013-05-18 06:14:00,
2013-05-18 02:19:00,77.0,70.5,30.04,ESE,112,9.0,11.0,80,0.00,,,0.00,Rainwise IP-100,2013-05-18 06:19:00,
2013-05-18 02:24:00,77.0,70.5,30.04,SE,135,4.0,12.0,80,0.00,,,0.00,Rainwise IP-100,2013-05-18 06:24:00,
2013-05-18 02:30:00,77.0,70.0,30.03,SSE,157,6.0,10.0,79,0.00,,,0.00,Rainwise IP-100,2013-05-18 06:30:00,
2013-05-18 02:35:00,77.0,70.0,30.03,SSW,202,6.0,11.0,79,0.00,,,0.00,Rainwise IP-100,2013-05-18 06:35:00,
2013-05-18 02:38:00,77.0,70.0,30.03,SSE,157,6.0,10.0,79,0.00,,,0.00,Rainwise IP-100,2013-05-18 06:38:00,
2013-05-18 02:43:00,77.0,70.0,30.03,ESE,112,10.0,11.0,79,0.00,,,0.00,Rainwise IP-100,2013-05-18 06:43:00,
2013-05-18 02:48:00,77.0,70.0,30.03,South,180,3.0,10.0,79,0.00,,,0.00,Rainwise IP-100,2013-05-18 06:48:00,
2013-05-18 02:53:00,77.0,70.5,30.03,SE,135,6.0,7.0,80,0.00,,,0.00,Rainwise IP-100,2013-05-18 06:53:00,
2013-05-18 02:59:00,77.0,70.0,30.03,SE,135,8.0,10.0,79,0.00,,,0.00,Rainwise IP-100,2013-05-18 06:59:00,
2013-05-18 03:04:00,77.0,70.5,30.03,SSE,157,2.0,9.0,80,0.00,,,0.00,Rainwise IP-100,2013-05-18 07:04:00,
2013-05-18 03:09:00,77.0,71.0,30.03,SE,135,7.0,10.0,81,0.00,,,0.00,Rainwise IP-100,2013-05-18 07:09:00,
2013-05-18 03:14:00,77.0,71.0,30.03,SE,135,2.0,9.0,81,0.00,,,0.00,Rainwise IP-100,2013-05-18 07:14:00,
2013-05-18 03:19:00,77.0,71.0,30.03,ESE,112,6.0,9.0,81,0.00,,,0.00,Rainwise IP-100,2013-05-18 07:19:00,
2013-05-18 03:24:00,77.0,71.3,30.03,ESE,112,10.0,10.0,82,0.00,,,0.00,Rainwise IP-100,2013-05-18 07:24:00,
2013-05-18 03:29:00,77.0,71.0,30.03,SE,135,6.0,10.0,81,0.00,,,0.00,Rainwise IP-100,2013-05-18 07:29:00,
2013-05-18 03:34:00,77.0,71.3,30.03,SE,135,2.0,7.0,82,0.00,,,0.00,Rainwise IP-100,2013-05-18 07:34:00,
2013-05-18 03:40:00,77.0,71.0,30.03,SE,135,6.0,7.0,81,0.00,,,0.00,Rainwise IP-100,2013-05-18 07:40:00,
2013-05-18 03:45:00,77.0,71.3,30.03,SE,135,2.0,9.0,82,0.00,,,0.00,Rainwise IP-100,2013-05-18 07:45:00,
2013-05-18 03:50:00,77.0,71.7,30.02,SE,135,4.0,9.0,83,0.00,,,0.00,Rainwise IP-100,2013-05-18 07:50:00,
2013-05-18 03:55:00,77.0,71.7,30.02,South,180,3.0,10.0,83,0.00,,,0.00,Rainwise IP-100,2013-05-18 07:55:00,
2013-05-18 04:00:00,77.0,71.7,30.02,SSE,157,6.0,9.0,83,0.00,,,0.00,Rainwise IP-100,2013-05-18 08:00:00,
2013-05-18 04:05:00,77.0,72.0,30.02,ESE,112,4.0,7.0,84,0.00,,,0.00,Rainwise IP-100,2013-05-18 08:05:00,
2013-05-18 04:10:00,77.0,72.3,30.03,SE,135,3.0,8.0,85,0.00,,,0.00,Rainwise IP-100,2013-05-18 08:10:00,
2013-05-18 04:16:00,77.0,72.3,30.03,SE,135,4.0,9.0,85,0.00,,,0.00,Rainwise IP-100,2013-05-18 08:16:00,
2013-05-18 04:21:00,77.0,72.0,30.03,South,180,7.0,9.0,84,0.00,,,0.00,Rainwise IP-100,2013-05-18 08:21:00,
2013-05-18 04:26:00,77.0,71.7,30.03,SSE,157,4.0,8.0,83,0.00,,,0.00,Rainwise IP-100,2013-05-18 08:26:00,
2013-05-18 04:31:00,77.0,72.0,30.03,SSE,157,6.0,7.0,84,0.00,,,0.00,Rainwise IP-100,2013-05-18 08:31:00,
2013-05-18 04:36:00,77.0,72.0,30.03,SSE,157,5.0,7.0,84,0.00,,,0.00,Rainwise IP-100,2013-05-18 08:36:00,
2013-05-18 04:41:00,77.0,72.3,30.03,South,180,6.0,9.0,85,0.00,,,0.00,Rainwise IP-100,2013-05-18 08:41:00,
2013-05-18 04:46:00,77.0,72.3,30.02,South,180,5.0,9.0,85,0.00,,,0.00,Rainwise IP-100,2013-05-18 08:46:00,
2013-05-18 04:51:00,76.0,71.0,30.03,South,180,3.0,8.0,84,0.00,,,0.00,Rainwise IP-100,2013-05-18 08:51:00,
2013-05-18 04:57:00,76.0,71.0,30.03,South,180,6.0,7.0,84,0.00,,,0.00,Rainwise IP-100,2013-05-18 08:57:00,
2013-05-18 05:02:00,76.0,70.5,30.03,South,180,2.0,7.0,83,0.00,,,0.00,Rainwise IP-100,2013-05-18 09:02:00,
2013-05-18 05:07:00,76.0,71.0,30.03,SSE,157,4.0,7.0,84,0.00,,,0.00,Rainwise IP-100,2013-05-18 09:07:00,
2013-05-18 05:12:00,76.0,70.5,30.03,SSE,157,4.0,8.0,83,0.00,,,0.00,Rainwise IP-100,2013-05-18 09:12:00,
2013-05-18 05:17:00,76.0,71.0,30.03,South,180,5.0,7.0,84,0.00,,,0.00,Rainwise IP-100,2013-05-18 09:17:00,
2013-05-18 05:22:00,76.0,71.0,30.03,South,180,4.0,7.0,84,0.00,,,0.00,Rainwise IP-100,2013-05-18 09:22:00,
2013-05-18 05:27:00,76.0,71.0,30.03,South,180,6.0,7.0,84,0.00,,,0.00,Rainwise IP-100,2013-05-18 09:27:00,
2013-05-18 05:33:00,76.0,71.3,30.03,South,180,1.0,7.0,85,0.00,,,0.00,Rainwise IP-100,2013-05-18 09:33:00,
2013-05-18 05:38:00,76.0,71.3,30.03,South,180,6.0,6.0,85,0.00,,,0.00,Rainwise IP-100,2013-05-18 09:38:00,
2013-05-18 05:43:00,76.0,71.3,30.03,SSE,157,3.0,6.0,85,0.00,,,0.00,Rainwise IP-100,2013-05-18 09:43:00,
2013-05-18 05:48:00,76.0,71.3,30.04,South,180,4.0,6.0,86,0.00,,,0.00,Rainwise IP-100,2013-05-18 09:48:00,
2013-05-18 05:53:00,76.0,71.3,30.04,South,180,5.0,6.0,86,0.00,,,0.00,Rainwise IP-100,2013-05-18 09:53:00,
2013-05-18 05:58:00,76.0,71.7,30.04,South,180,2.0,6.0,87,0.00,,,0.00,Rainwise IP-100,2013-05-18 09:58:00,
2013-05-18 06:03:00,76.0,71.7,30.04,South,180,3.0,6.0,87,0.00,,,0.00,Rainwise IP-100,2013-05-18 10:03:00,
2013-05-18 06:08:00,76.0,71.7,30.04,South,180,3.0,6.0,87,0.00,,,0.00,Rainwise IP-100,2013-05-18 10:08:00,
2013-05-18 06:14:00,76.0,72.0,30.04,South,180,4.0,5.0,88,0.00,,,0.00,Rainwise IP-100,2013-05-18 10:14:00,
2013-05-18 06:19:00,76.0,71.7,30.04,South,180,3.0,5.0,87,0.00,,,0.00,Rainwise IP-100,2013-05-18 10:19:00,
2013-05-18 06:24:00,76.0,72.0,30.04,South,180,2.0,6.0,88,0.00,,,0.00,Rainwise IP-100,2013-05-18 10:24:00,
2013-05-18 06:29:00,76.0,72.0,30.04,SSE,157,5.0,6.0,88,0.00,,,0.00,Rainwise IP-100,2013-05-18 10:29:00,
2013-05-18 06:34:00,76.0,72.0,30.04,SSE,157,2.0,6.0,88,0.00,,,0.00,Rainwise IP-100,2013-05-18 10:34:00,
2013-05-18 06:39:00,76.0,72.0,30.04,South,180,3.0,6.0,88,0.00,,,0.00,Rainwise IP-100,2013-05-18 10:39:00,
2013-05-18 06:44:00,76.0,72.0,30.05,South,180,5.0,6.0,88,0.00,,,0.00,Rainwise IP-100,2013-05-18 10:44:00,
2013-05-18 06:50:00,76.0,72.0,30.05,South,180,2.0,8.0,88,0.00,,,0.00,Rainwise IP-100,2013-05-18 10:50:00,
2013-05-18 06:55:00,76.0,71.7,30.05,South,180,3.0,6.0,87,0.00,,,0.00,Rainwise IP-100,2013-05-18 10:55:00,
2013-05-18 07:00:00,76.0,71.7,30.05,SSE,157,1.0,6.0,87,0.00,,,0.00,Rainwise IP-100,2013-05-18 11:00:00,
2013-05-18 07:05:00,76.0,72.0,30.06,SE,135,2.0,5.0,88,0.00,,,0.00,Rainwise IP-100,2013-05-18 11:05:00,
2013-05-18 07:10:00,76.0,71.7,30.06,SSE,157,5.0,5.0,87,0.00,,,0.00,Rainwise IP-100,2013-05-18 11:10:00,
2013-05-18 07:15:00,76.0,71.7,30.06,South,180,5.0,6.0,87,0.00,,,0.00,Rainwise IP-100,2013-05-18 11:15:00,
2013-05-18 07:20:00,76.0,71.7,30.06,South,180,4.0,6.0,87,0.00,,,0.00,Rainwise IP-100,2013-05-18 11:20:00,
2013-05-18 07:25:00,77.0,72.7,30.06,SE,135,3.0,6.0,86,0.00,,,0.00,Rainwise IP-100,2013-05-18 11:25:00,
2013-05-18 07:31:00,77.0,72.3,30.06,SE,135,3.0,6.0,85,0.00,,,0.00,Rainwise IP-100,2013-05-18 11:31:00,
2013-05-18 07:36:00,77.0,72.3,30.06,South,180,5.0,6.0,85,0.00,,,0.00,Rainwise IP-100,2013-05-18 11:36:00,
2013-05-18 07:41:00,77.0,71.7,30.06,South,180,5.0,7.0,83,0.00,,,0.00,Rainwise IP-100,2013-05-18 11:41:00,
2013-05-18 07:46:00,78.0,72.3,30.07,SE,135,3.0,7.0,82,0.00,,,0.00,Rainwise IP-100,2013-05-18 11:46:00,
2013-05-18 07:51:00,78.0,71.7,30.07,South,180,5.0,8.0,80,0.00,,,0.00,Rainwise IP-100,2013-05-18 11:51:00,
2013-05-18 07:56:00,79.0,72.3,30.08,SE,135,6.0,9.0,80,0.00,,,0.00,Rainwise IP-100,2013-05-18 11:56:00,
2013-05-18 08:01:00,79.0,72.0,30.08,SSE,157,4.0,9.0,79,0.00,,,0.00,Rainwise IP-100,2013-05-18 12:01:00,
2013-05-18 08:07:00,80.0,72.0,30.08,South,180,2.0,7.0,77,0.00,,,0.00,Rainwise IP-100,2013-05-18 12:07:00,
2013-05-18 08:12:00,80.0,71.7,30.08,SE,135,3.0,10.0,76,0.00,,,0.00,Rainwise IP-100,2013-05-18 12:12:00,
2013-05-18 08:17:00,80.0,71.7,30.08,SE,135,3.0,7.0,76,0.00,,,0.00,Rainwise IP-100,2013-05-18 12:17:00,
2013-05-18 08:22:00,80.0,71.3,30.09,SE,135,3.0,8.0,75,0.00,,,0.00,Rainwise IP-100,2013-05-18 12:22:00,
2013-05-18 08:27:00,81.0,72.3,30.09,East,90,1.0,9.0,75,0.00,,,0.00,Rainwise IP-100,2013-05-18 12:27:00,
2013-05-18 08:32:00,81.0,72.0,30.09,ESE,112,7.0,10.0,74,0.00,,,0.00,Rainwise IP-100,2013-05-18 12:32:00,
2013-05-18 08:37:00,81.0,72.0,30.10,SE,135,5.0,10.0,74,0.00,,,0.00,Rainwise IP-100,2013-05-18 12:37:00,
2013-05-18 08:42:00,81.0,71.7,30.10,SE,135,9.0,9.0,73,0.00,,,0.00,Rainwise IP-100,2013-05-18 12:42:00,
2013-05-18 08:48:00,81.0,72.0,30.10,ESE,112,10.0,10.0,74,0.00,,,0.00,Rainwise IP-100,2013-05-18 12:48:00,
2013-05-18 08:53:00,81.0,72.0,30.10,SE,135,6.0,11.0,74,0.00,,,0.00,Rainwise IP-100,2013-05-18 12:53:00,
2013-05-18 08:58:00,81.0,72.0,30.10,SE,135,7.0,10.0,74,0.00,,,0.00,Rainwise IP-100,2013-05-18 12:58:00,
2013-05-18 09:03:00,82.0,72.0,30.10,SE,135,6.0,9.0,72,0.00,,,0.00,Rainwise IP-100,2013-05-18 13:03:00,
2013-05-18 09:08:00,82.0,71.7,30.10,East,90,6.0,9.0,71,0.00,,,0.00,Rainwise IP-100,2013-05-18 13:08:00,
2013-05-18 09:13:00,82.0,71.7,30.11,East,90,7.0,10.0,71,0.00,,,0.00,Rainwise IP-100,2013-05-18 13:13:00,
2013-05-18 09:18:00,82.0,71.3,30.11,SE,135,9.0,12.0,70,0.00,,,0.00,Rainwise IP-100,2013-05-18 13:18:00,
2013-05-18 09:24:00,82.0,71.7,30.11,SE,135,5.0,12.0,71,0.00,,,0.00,Rainwise IP-100,2013-05-18 13:24:00,
2013-05-18 09:29:00,82.0,70.5,30.11,East,90,8.0,10.0,68,0.00,,,0.00,Rainwise IP-100,2013-05-18 13:29:00,
2013-05-18 09:34:00,83.0,71.7,30.11,South,180,5.0,11.0,68,0.00,,,0.00,Rainwise IP-100,2013-05-18 13:34:00,
2013-05-18 09:39:00,83.0,72.0,30.11,SSE,157,6.0,10.0,69,0.00,,,0.00,Rainwise IP-100,2013-05-18 13:39:00,
2013-05-18 09:44:00,82.0,71.0,30.11,SE,135,6.0,13.0,69,0.00,,,0.00,Rainwise IP-100,2013-05-18 13:44:00,
2013-05-18 09:49:00,82.0,71.7,30.12,NE,45,7.0,10.0,71,0.00,,,0.00,Rainwise IP-100,2013-05-18 13:49:00,
2013-05-18 09:54:00,83.0,71.0,30.12,East,90,6.0,10.0,67,0.00,,,0.00,Rainwise IP-100,2013-05-18 13:54:00,
2013-05-18 09:59:00,83.0,71.7,30.12,SE,135,6.0,12.0,68,0.00,,,0.00,Rainwise IP-100,2013-05-18 13:59:00,
2013-05-18 10:05:00,82.0,72.0,30.12,SSE,157,7.0,13.0,72,0.00,,,0.00,Rainwise IP-100,2013-05-18 14:05:00,
2013-05-18 10:10:00,82.0,71.3,30.12,ESE,112,6.0,12.0,70,0.00,,,0.00,Rainwise IP-100,2013-05-18 14:10:00,
2013-05-18 10:15:00,82.0,70.5,30.12,SE,135,8.0,12.0,68,0.00,,,0.00,Rainwise IP-100,2013-05-18 14:15:00,
2013-05-18 10:20:00,82.0,71.0,30.12,South,180,6.0,11.0,69,0.00,,,0.00,Rainwise IP-100,2013-05-18 14:20:00,
2013-05-18 10:25:00,83.0,72.0,30.12,South,180,7.0,9.0,69,0.00,,,0.00,Rainwise IP-100,2013-05-18 14:25:00,
2013-05-18 10:30:00,82.0,70.5,30.12,South,180,7.0,12.0,68,0.00,,,0.00,Rainwise IP-100,2013-05-18 14:30:00,
2013-05-18 10:35:00,81.0,71.0,30.12,East,90,4.0,10.0,71,0.00,,,0.00,Rainwise IP-100,2013-05-18 14:35:00,
2013-05-18 10:41:00,81.0,71.3,30.11,South,180,8.0,8.0,72,0.00,,,0.00,Rainwise IP-100,2013-05-18 14:41:00,
2013-05-18 10:46:00,81.0,71.3,30.11,SE,135,6.0,10.0,72,0.00,,,0.00,Rainwise IP-100,2013-05-18 14:46:00,
2013-05-18 10:51:00,81.0,71.7,30.11,SSE,157,6.0,9.0,73,0.00,,,0.00,Rainwise IP-100,2013-05-18 14:51:00,
2013-05-18 10:56:00,81.0,71.0,30.10,SSE,157,6.0,12.0,71,0.00,,,0.00,Rainwise IP-100,2013-05-18 14:56:00,
2013-05-18 11:01:00,82.0,71.0,30.11,SE,135,6.0,10.0,69,0.00,,,0.00,Rainwise IP-100,2013-05-18 15:01:00,
2013-05-18 11:06:00,82.0,71.0,30.11,ESE,112,10.0,13.0,69,0.00,,,0.00,Rainwise IP-100,2013-05-18 15:06:00,
2013-05-18 11:11:00,83.0,70.5,30.12,South,180,4.0,13.0,66,0.00,,,0.00,Rainwise IP-100,2013-05-18 15:11:00,
2013-05-18 11:16:00,82.0,71.0,30.12,South,180,6.0,15.0,69,0.00,,,0.00,Rainwise IP-100,2013-05-18 15:16:00,
2013-05-18 11:22:00,82.0,71.0,30.12,SE,135,7.0,13.0,69,0.00,,,0.00,Rainwise IP-100,2013-05-18 15:22:00,
2013-05-18 11:27:00,82.0,71.0,30.12,ESE,112,10.0,15.0,69,0.00,,,0.00,Rainwise IP-100,2013-05-18 15:27:00,
2013-05-18 11:32:00,82.0,70.5,30.12,SE,135,8.0,14.0,68,0.00,,,0.00,Rainwise IP-100,2013-05-18 15:32:00,
2013-05-18 11:37:00,83.0,71.0,30.12,ESE,112,6.0,12.0,67,0.00,,,0.00,Rainwise IP-100,2013-05-18 15:37:00,
2013-05-18 11:42:00,82.0,71.0,30.12,SE,135,6.0,12.0,69,0.00,,,0.00,Rainwise IP-100,2013-05-18 15:42:00,
2013-05-18 11:47:00,82.0,71.0,30.12,SE,135,12.0,15.0,69,0.00,,,0.00,Rainwise IP-100,2013-05-18 15:47:00,
2013-05-18 11:52:00,81.0,70.0,30.12,ESE,112,10.0,14.0,69,0.00,,,0.00,Rainwise IP-100,2013-05-18 15:52:00,
2013-05-18 11:57:00,82.0,71.3,30.12,South,180,6.0,15.0,70,0.00,,,0.00,Rainwise IP-100,2013-05-18 15:57:00,
2013-05-18 12:02:00,83.0,71.0,30.12,East,90,8.0,11.0,67,0.00,,,0.00,Rainwise IP-100,2013-05-18 16:02:00,
2013-05-18 12:07:00,83.0,71.0,30.12,South,180,7.0,15.0,67,0.00,,,0.00,Rainwise IP-100,2013-05-18 16:07:00,
2013-05-18 12:13:00,82.0,70.0,30.12,South,180,5.0,15.0,67,0.00,,,0.00,Rainwise IP-100,2013-05-18 16:13:00,
2013-05-18 12:18:00,83.0,70.5,30.12,East,90,9.0,13.0,66,0.00,,,0.00,Rainwise IP-100,2013-05-18 16:18:00,
2013-05-18 12:23:00,82.0,69.7,30.12,East,90,7.0,12.0,66,0.00,,,0.00,Rainwise IP-100,2013-05-18 16:23:00,
2013-05-18 12:28:00,82.0,70.0,30.11,SE,135,6.0,14.0,67,0.00,,,0.00,Rainwise IP-100,2013-05-18 16:28:00,
2013-05-18 12:33:00,81.0,70.0,30.11,South,180,7.0,16.0,69,0.00,,,0.00,Rainwise IP-100,2013-05-18 16:33:00,
2013-05-18 12:38:00,81.0,70.0,30.11,SE,135,2.0,15.0,69,0.00,,,0.00,Rainwise IP-100,2013-05-18 16:38:00,
2013-05-18 12:43:00,82.0,71.0,30.10,ESE,112,5.0,15.0,69,0.00,,,0.00,Rainwise IP-100,2013-05-18 16:43:00,
2013-05-18 12:48:00,82.0,70.0,30.10,South,180,6.0,12.0,67,0.00,,,0.00,Rainwise IP-100,2013-05-18 16:48:00,
2013-05-18 12:54:00,81.0,69.7,30.10,SSE,157,13.0,15.0,68,0.00,,,0.00,Rainwise IP-100,2013-05-18 16:54:00,
2013-05-18 12:59:00,81.0,70.5,30.10,SE,135,9.0,16.0,70,0.00,,,0.00,Rainwise IP-100,2013-05-18 16:59:00,
2013-05-18 13:04:00,82.0,71.0,30.10,ESE,112,12.0,17.0,69,0.00,,,0.00,Rainwise IP-100,2013-05-18 17:04:00,
2013-05-18 13:09:00,82.0,71.0,30.10,SE,135,4.0,15.0,69,0.00,,,0.00,Rainwise IP-100,2013-05-18 17:09:00,
2013-05-18 13:14:00,83.0,70.5,30.10,East,90,7.0,10.0,66,0.00,,,0.00,Rainwise IP-100,2013-05-18 17:14:00,
2013-05-18 13:19:00,82.0,69.7,30.10,ESE,112,10.0,13.0,66,0.00,,,0.00,Rainwise IP-100,2013-05-18 17:19:00,
2013-05-18 13:24:00,81.0,70.0,30.10,East,90,7.0,17.0,69,0.00,,,0.00,Rainwise IP-100,2013-05-18 17:24:00,
2013-05-18 13:30:00,82.0,70.0,30.10,SE,135,6.0,15.0,67,0.00,,,0.00,Rainwise IP-100,2013-05-18 17:30:00,
2013-05-18 13:35:00,82.0,70.0,30.09,SE,135,9.0,16.0,67,0.00,,,0.00,Rainwise IP-100,2013-05-18 17:35:00,
2013-05-18 13:40:00,82.0,70.5,30.09,SE,135,8.0,17.0,68,0.00,,,0.00,Rainwise IP-100,2013-05-18 17:40:00,
2013-05-18 13:45:00,82.0,70.0,30.09,SE,135,6.0,16.0,67,0.00,,,0.00,Rainwise IP-100,2013-05-18 17:45:00,
2013-05-18 13:50:00,82.0,70.5,30.09,SE,135,12.0,17.0,68,0.00,,,0.00,Rainwise IP-100,2013-05-18 17:50:00,
2013-05-18 13:55:00,81.0,70.0,30.09,East,90,12.0,16.0,69,0.00,,,0.00,Rainwise IP-100,2013-05-18 17:55:00,
2013-05-18 14:00:00,82.0,71.0,30.09,South,180,6.0,15.0,69,0.00,,,0.00,Rainwise IP-100,2013-05-18 18:00:00,
2013-05-18 14:05:00,83.0,71.0,30.09,South,180,4.0,13.0,67,0.00,,,0.00,Rainwise IP-100,2013-05-18 18:05:00,
2013-05-18 14:11:00,82.0,70.5,30.09,ESE,112,7.0,15.0,68,0.00,,,0.00,Rainwise IP-100,2013-05-18 18:11:00,
2013-05-18 14:16:00,82.0,70.5,30.09,SE,135,6.0,15.0,68,0.00,,,0.00,Rainwise IP-100,2013-05-18 18:16:00,
2013-05-18 14:21:00,82.0,70.0,30.09,South,180,10.0,16.0,67,0.00,,,0.00,Rainwise IP-100,2013-05-18 18:21:00,
2013-05-18 14:26:00,81.0,70.0,30.08,ESE,112,12.0,18.0,69,0.00,,,0.00,Rainwise IP-100,2013-05-18 18:26:00,
2013-05-18 14:31:00,81.0,70.5,30.09,South,180,6.0,16.0,70,0.00,,,0.00,Rainwise IP-100,2013-05-18 18:31:00,
2013-05-18 14:36:00,81.0,71.0,30.08,ESE,112,5.0,15.0,71,0.00,,,0.00,Rainwise IP-100,2013-05-18 18:36:00,
2013-05-18 14:41:00,81.0,70.5,30.08,SE,135,6.0,12.0,70,0.00,,,0.00,Rainwise IP-100,2013-05-18 18:41:00,
2013-05-18 14:47:00,80.0,69.7,30.07,SE,135,9.0,16.0,71,0.00,,,0.00,Rainwise IP-100,2013-05-18 18:47:00,
2013-05-18 14:52:00,80.0,70.0,30.07,South,180,6.0,16.0,72,0.00,,,0.00,Rainwise IP-100,2013-05-18 18:52:00,
2013-05-18 14:57:00,80.0,70.0,30.07,SE,135,7.0,15.0,72,0.00,,,0.00,Rainwise IP-100,2013-05-18 18:57:00,
2013-05-18 15:02:00,79.0,70.0,30.06,ESE,112,6.0,15.0,74,0.00,,,0.00,Rainwise IP-100,2013-05-18 19:02:00,
2013-05-18 15:07:00,79.0,70.0,30.07,SE,135,6.0,13.0,74,0.00,,,0.00,Rainwise IP-100,2013-05-18 19:07:00,
2013-05-18 15:12:00,79.0,70.0,30.06,SE,135,3.0,13.0,74,0.00,,,0.00,Rainwise IP-100,2013-05-18 19:12:00,
2013-05-18 15:17:00,79.0,70.5,30.06,SE,135,4.0,13.0,75,0.00,,,0.00,Rainwise IP-100,2013-05-18 19:17:00,
2013-05-18 15:22:00,79.0,70.0,30.06,SSE,157,3.0,15.0,74,0.00,,,0.00,Rainwise IP-100,2013-05-18 19:22:00,
2013-05-18 15:28:00,79.0,70.0,30.06,SE,135,12.0,13.0,74,0.00,,,0.00,Rainwise IP-100,2013-05-18 19:28:00,
2013-05-18 15:33:00,79.0,70.0,30.06,SE,135,6.0,14.0,74,0.00,,,0.00,Rainwise IP-100,2013-05-18 19:33:00,
2013-05-18 15:38:00,79.0,70.0,30.06,SE,135,7.0,13.0,74,0.00,,,0.00,Rainwise IP-100,2013-05-18 19:38:00,
2013-05-18 15:43:00,78.0,69.3,30.05,SE,135,9.0,16.0,74,0.00,,,0.00,Rainwise IP-100,2013-05-18 19:43:00,
2013-05-18 15:48:00,78.0,70.0,30.05,SE,135,9.0,15.0,76,0.00,,,0.00,Rainwise IP-100,2013-05-18 19:48:00,
2013-05-18 15:53:00,78.0,69.7,30.06,SE,135,6.0,14.0,75,0.00,,,0.00,Rainwise IP-100,2013-05-18 19:53:00,
2013-05-18 15:58:00,78.0,69.3,30.05,SE,135,6.0,15.0,74,0.00,,,0.00,Rainwise IP-100,2013-05-18 19:58:00,
2013-05-18 16:04:00,79.0,69.3,30.05,SSE,157,12.0,16.0,72,0.00,,,0.00,Rainwise IP-100,2013-05-18 20:04:00,
2013-05-18 16:09:00,79.0,69.0,30.04,ESE,112,16.0,16.0,71,0.00,,,0.00,Rainwise IP-100,2013-05-18 20:09:00,
2013-05-18 16:14:00,79.0,69.3,30.05,ESE,112,10.0,17.0,72,0.00,,,0.00,Rainwise IP-100,2013-05-18 20:14:00,
2013-05-18 16:19:00,79.0,69.3,30.05,SE,135,8.0,16.0,72,0.00,,,0.00,Rainwise IP-100,2013-05-18 20:19:00,
2013-05-18 16:24:00,79.0,69.7,30.04,SE,135,3.0,15.0,73,0.00,,,0.00,Rainwise IP-100,2013-05-18 20:24:00,
2013-05-18 16:29:00,79.0,69.3,30.04,SE,135,15.0,17.0,72,0.00,,,0.00,Rainwise IP-100,2013-05-18 20:29:00,
2013-05-18 16:34:00,79.0,69.3,30.04,SE,135,3.0,16.0,72,0.00,,,0.00,Rainwise IP-100,2013-05-18 20:34:00,
2013-05-18 16:40:00,80.0,69.7,30.04,ESE,112,13.0,13.0,71,0.00,,,0.00,Rainwise IP-100,2013-05-18 20:40:00,
2013-05-18 16:45:00,80.0,69.3,30.04,SE,135,12.0,16.0,70,0.00,,,0.00,Rainwise IP-100,2013-05-18 20:45:00,
2013-05-18 16:50:00,80.0,69.0,30.03,ESE,112,10.0,16.0,69,0.00,,,0.00,Rainwise IP-100,2013-05-18 20:50:00,
2013-05-18 16:55:00,80.0,69.3,30.04,SE,135,8.0,16.0,70,0.00,,,0.00,Rainwise IP-100,2013-05-18 20:55:00,
2013-05-18 17:00:00,81.0,69.3,30.05,SSE,157,8.0,13.0,67,0.00,,,0.00,Rainwise IP-100,2013-05-18 21:00:00,
2013-05-18 17:05:00,81.0,70.0,30.05,SE,135,10.0,13.0,69,0.00,,,0.00,Rainwise IP-100,2013-05-18 21:05:00,
2013-05-18 17:10:00,81.0,69.3,30.05,SSE,157,3.0,15.0,67,0.00,,,0.00,Rainwise IP-100,2013-05-18 21:10:00,
2013-05-18 17:15:00,81.0,69.3,30.05,ESE,112,9.0,14.0,67,0.00,,,0.00,Rainwise IP-100,2013-05-18 21:15:00,
2013-05-18 17:21:00,80.0,68.5,30.05,SE,135,15.0,15.0,68,0.00,,,0.00,Rainwise IP-100,2013-05-18 21:21:00,
2013-05-18 17:26:00,80.0,69.0,30.05,SE,135,10.0,16.0,69,0.00,,,0.00,Rainwise IP-100,2013-05-18 21:26:00,
2013-05-18 17:31:00,80.0,68.0,30.05,ESE,112,15.0,15.0,67,0.00,,,0.00,Rainwise IP-100,2013-05-18 21:31:00,
2013-05-18 17:36:00,80.0,69.0,30.05,SSE,157,6.0,16.0,69,0.00,,,0.00,Rainwise IP-100,2013-05-18 21:36:00,
2013-05-18 17:41:00,80.0,69.0,30.05,SE,135,6.0,12.0,69,0.00,,,0.00,Rainwise IP-100,2013-05-18 21:41:00,
2013-05-18 17:46:00,80.0,69.0,30.05,East,90,4.0,13.0,69,0.00,,,0.00,Rainwise IP-100,2013-05-18 21:46:00,
2013-05-18 17:51:00,80.0,69.3,30.04,South,180,7.0,12.0,70,0.00,,,0.00,Rainwise IP-100,2013-05-18 21:51:00,
2013-05-18 17:57:00,79.0,69.0,30.04,SE,135,7.0,17.0,71,0.00,,,0.00,Rainwise IP-100,2013-05-18 21:57:00,
2013-05-18 18:02:00,79.0,69.3,30.04,SSE,157,3.0,11.0,72,0.00,,,0.00,Rainwise IP-100,2013-05-18 22:02:00,
2013-05-18 18:07:00,79.0,69.3,30.04,SE,135,7.0,12.0,72,0.00,,,0.00,Rainwise IP-100,2013-05-18 22:07:00,
2013-05-18 18:12:00,79.0,69.0,30.04,SE,135,6.0,10.0,71,0.00,,,0.00,Rainwise IP-100,2013-05-18 22:12:00,
2013-05-18 18:17:00,79.0,69.0,30.04,SSE,157,3.0,16.0,71,0.00,,,0.00,Rainwise IP-100,2013-05-18 22:17:00,
2013-05-18 18:22:00,78.0,69.3,30.05,ESE,112,10.0,15.0,74,0.00,,,0.00,Rainwise IP-100,2013-05-18 22:22:00,
2013-05-18 18:27:00,78.0,69.0,30.04,SE,135,8.0,17.0,73,0.00,,,0.00,Rainwise IP-100,2013-05-18 22:27:00,
2013-05-18 18:32:00,78.0,69.0,30.04,SE,135,5.0,13.0,73,0.00,,,0.00,Rainwise IP-100,2013-05-18 22:32:00,
2013-05-18 18:38:00,78.0,69.3,30.03,East,90,5.0,17.0,74,0.00,,,0.00,Rainwise IP-100,2013-05-18 22:38:00,
2013-05-18 18:43:00,78.0,69.0,30.03,ESE,112,10.0,15.0,73,0.00,,,0.00,Rainwise IP-100,2013-05-18 22:43:00,
2013-05-18 18:48:00,78.0,69.3,30.03,SE,135,6.0,15.0,74,0.00,,,0.00,Rainwise IP-100,2013-05-18 22:48:00,
2013-05-18 18:53:00,78.0,69.3,30.03,SE,135,9.0,14.0,74,0.00,,,0.00,Rainwise IP-100,2013-05-18 22:53:00,
2013-05-18 18:58:00,78.0,69.3,30.03,ESE,112,7.0,13.0,74,0.00,,,0.00,Rainwise IP-100,2013-05-18 22:58:00,
2013-05-18 19:03:00,78.0,69.3,30.03,SE,135,5.0,11.0,74,0.00,,,0.00,Rainwise IP-100,2013-05-18 23:03:00,
2013-05-18 19:08:00,78.0,69.3,30.03,ESE,112,8.0,10.0,74,0.00,,,0.00,Rainwise IP-100,2013-05-18 23:08:00,
2013-05-18 19:14:00,78.0,69.3,30.04,East,90,8.0,12.0,74,0.00,,,0.00,Rainwise IP-100,2013-05-18 23:14:00,
2013-05-18 19:19:00,78.0,70.0,30.04,SE,135,10.0,10.0,76,0.00,,,0.00,Rainwise IP-100,2013-05-18 23:19:00,
2013-05-18 19:24:00,78.0,70.0,30.04,SSE,157,4.0,11.0,76,0.00,,,0.00,Rainwise IP-100,2013-05-18 23:24:00,
2013-05-18 19:29:00,78.0,69.7,30.04,SE,135,8.0,13.0,75,0.00,,,0.00,Rainwise IP-100,2013-05-18 23:29:00,
2013-05-18 19:34:00,78.0,70.0,30.04,East,90,6.0,11.0,76,0.00,,,0.00,Rainwise IP-100,2013-05-18 23:34:00,
2013-05-18 19:39:00,78.0,69.7,30.04,East,90,6.0,10.0,75,0.00,,,0.00,Rainwise IP-100,2013-05-18 23:39:00,
2013-05-18 19:44:00,78.0,70.0,30.04,East,90,7.0,10.0,76,0.00,,,0.00,Rainwise IP-100,2013-05-18 23:44:00,
2013-05-18 19:49:00,78.0,70.0,30.04,East,90,8.0,10.0,76,0.00,,,0.00,Rainwise IP-100,2013-05-18 23:49:00,
2013-05-18 19:55:00,78.0,69.7,30.04,SE,135,7.0,12.0,75,0.00,,,0.00,Rainwise IP-100,2013-05-18 23:55:00,
2013-05-18 20:00:00,78.0,69.3,30.05,East,90,6.0,12.0,74,0.00,,,0.00,Rainwise IP-100,2013-05-19 00:00:00,
2013-05-18 20:05:00,78.0,69.7,30.04,SE,135,8.0,12.0,75,0.00,,,0.00,Rainwise IP-100,2013-05-19 00:05:00,
2013-05-18 20:10:00,78.0,69.7,30.04,SE,135,4.0,12.0,75,0.00,,,0.00,Rainwise IP-100,2013-05-19 00:10:00,
2013-05-18 20:15:00,78.0,69.3,30.05,SE,135,10.0,12.0,74,0.00,,,0.00,Rainwise IP-100,2013-05-19 00:15:00,
2013-05-18 20:20:00,78.0,69.3,30.05,East,90,4.0,12.0,74,0.00,,,0.00,Rainwise IP-100,2013-05-19 00:20:00,
2013-05-18 20:25:00,78.0,69.0,30.05,East,90,2.0,15.0,73,0.00,,,0.00,Rainwise IP-100,2013-05-19 00:25:00,
2013-05-18 20:31:00,78.0,69.3,30.06,SE,135,5.0,15.0,74,0.00,,,0.00,Rainwise IP-100,2013-05-19 00:31:00,
2013-05-18 20:36:00,77.0,68.0,30.06,SE,135,8.0,12.0,73,0.00,,,0.00,Rainwise IP-100,2013-05-19 00:36:00,
2013-05-18 20:41:00,77.0,68.0,30.06,SE,135,5.0,12.0,73,0.00,,,0.00,Rainwise IP-100,2013-05-19 00:41:00,
2013-05-18 20:46:00,78.0,68.5,30.06,SE,135,2.0,11.0,72,0.00,,,0.00,Rainwise IP-100,2013-05-19 00:46:00,
2013-05-18 20:51:00,78.0,68.5,30.06,SE,135,3.0,12.0,72,0.00,,,0.00,Rainwise IP-100,2013-05-19 00:51:00,
2013-05-18 20:56:00,78.0,68.5,30.06,SE,135,8.0,10.0,72,0.00,,,0.00,Rainwise IP-100,2013-05-19 00:56:00,
2013-05-18 21:01:00,78.0,68.5,30.06,SE,135,6.0,10.0,72,0.00,,,0.00,Rainwise IP-100,2013-05-19 01:01:00,
2013-05-18 21:06:00,78.0,68.5,30.06,SE,135,6.0,12.0,72,0.00,,,0.00,Rainwise IP-100,2013-05-19 01:06:00,
2013-05-18 21:12:00,78.0,68.5,30.06,SE,135,4.0,10.0,72,0.00,,,0.00,Rainwise IP-100,2013-05-19 01:12:00,
2013-05-18 21:17:00,78.0,69.3,30.06,SE,135,9.0,12.0,74,0.00,,,0.00,Rainwise IP-100,2013-05-19 01:17:00,
2013-05-18 21:22:00,78.0,69.3,30.06,East,90,5.0,13.0,74,0.00,,,0.00,Rainwise IP-100,2013-05-19 01:22:00,
2013-05-18 21:27:00,78.0,69.7,30.06,ESE,112,10.0,15.0,75,0.00,,,0.00,Rainwise IP-100,2013-05-19 01:27:00,
2013-05-18 21:32:00,78.0,70.0,30.06,SE,135,9.0,13.0,76,0.00,,,0.00,Rainwise IP-100,2013-05-19 01:32:00,
2013-05-18 21:37:00,77.0,69.0,30.06,SE,135,5.0,13.0,76,0.00,,,0.00,Rainwise IP-100,2013-05-19 01:37:00,
2013-05-18 21:42:00,77.0,69.0,30.06,SE,135,7.0,12.0,76,0.00,,,0.00,Rainwise IP-100,2013-05-19 01:42:00,
2013-05-18 21:48:00,77.0,69.0,30.06,SE,135,9.0,13.0,75,0.00,,,0.00,Rainwise IP-100,2013-05-19 01:48:00,
2013-05-18 21:53:00,77.0,69.0,30.06,NE,45,5.0,11.0,76,0.00,,,0.00,Rainwise IP-100,2013-05-19 01:53:00,
2013-05-18 21:58:00,77.0,69.0,30.06,ESE,112,6.0,10.0,76,0.00,,,0.00,Rainwise IP-100,2013-05-19 01:58:00,
2013-05-18 22:03:00,77.0,69.3,30.06,ESE,112,7.0,11.0,77,0.00,,,0.00,Rainwise IP-100,2013-05-19 02:03:00,
2013-05-18 22:08:00,77.0,69.0,30.06,South,180,6.0,13.0,76,0.00,,,0.00,Rainwise IP-100,2013-05-19 02:08:00,
2013-05-18 22:13:00,77.0,69.3,30.06,ESE,112,4.0,11.0,77,0.00,,,0.00,Rainwise IP-100,2013-05-19 02:13:00,
2013-05-18 22:18:00,77.0,69.0,30.06,ESE,112,6.0,11.0,76,0.00,,,0.00,Rainwise IP-100,2013-05-19 02:18:00,
2013-05-18 22:23:00,77.0,69.0,30.07,SE,135,2.0,13.0,76,0.00,,,0.00,Rainwise IP-100,2013-05-19 02:23:00,
2013-05-18 22:29:00,77.0,69.0,30.06,SSE,157,6.0,11.0,76,0.00,,,0.00,Rainwise IP-100,2013-05-19 02:29:00,
2013-05-18 22:34:00,77.0,69.3,30.06,SE,135,3.0,9.0,77,0.00,,,0.00,Rainwise IP-100,2013-05-19 02:34:00,
2013-05-18 22:39:00,77.0,69.0,30.06,East,90,7.0,12.0,76,0.00,,,0.00,Rainwise IP-100,2013-05-19 02:39:00,
2013-05-18 22:44:00,77.0,69.0,30.06,ESE,112,2.0,13.0,75,0.00,,,0.00,Rainwise IP-100,2013-05-19 02:44:00,
2013-05-18 22:49:00,77.0,69.0,30.06,SE,135,9.0,12.0,75,0.00,,,0.00,Rainwise IP-100,2013-05-19 02:49:00,
2013-05-18 22:54:00,77.0,68.5,30.06,ESE,112,9.0,11.0,74,0.00,,,0.00,Rainwise IP-100,2013-05-19 02:54:00,
2013-05-18 22:59:00,77.0,69.0,30.06,ESE,112,7.0,13.0,75,0.00,,,0.00,Rainwise IP-100,2013-05-19 02:59:00,
2013-05-18 23:05:00,77.0,69.0,30.06,SE,135,7.0,11.0,75,0.00,,,0.00,Rainwise IP-100,2013-05-19 03:05:00,
2013-05-18 23:10:00,77.0,68.5,30.07,SE,135,6.0,10.0,74,0.00,,,0.00,Rainwise IP-100,2013-05-19 03:10:00,
2013-05-18 23:15:00,77.0,68.5,30.07,ESE,112,7.0,13.0,74,0.00,,,0.00,Rainwise IP-100,2013-05-19 03:15:00,
2013-05-18 23:20:00,77.0,69.0,30.07,SE,135,7.0,10.0,75,0.00,,,0.00,Rainwise IP-100,2013-05-19 03:20:00,
2013-05-18 23:25:00,77.0,68.5,30.06,ESE,112,7.0,9.0,74,0.00,,,0.00,Rainwise IP-100,2013-05-19 03:25:00,
2013-05-18 23:30:00,77.0,68.5,30.06,SE,135,6.0,11.0,74,0.00,,,0.00,Rainwise IP-100,2013-05-19 03:30:00,
2013-05-18 23:35:00,77.0,68.5,30.07,ESE,112,7.0,7.0,74,0.00,,,0.00,Rainwise IP-100,2013-05-19 03:35:00,
2013-05-18 23:40:00,77.0,69.0,30.07,East,90,6.0,12.0,75,0.00,,,0.00,Rainwise IP-100,2013-05-19 03:40:00,
2013-05-18 23:46:00,77.0,69.0,30.06,SSE,157,6.0,12.0,75,0.00,,,0.00,Rainwise IP-100,2013-05-19 03:46:00,
2013-05-18 23:51:00,77.0,69.0,30.06,SE,135,6.0,12.0,76,0.00,,,0.00,Rainwise IP-100,2013-05-19 03:51:00,
2013-05-18 23:56:00,77.0,69.0,30.06,ESE,112,6.0,11.0,76,0.00,,,0.00,Rainwise IP-100,2013-05-19 03:56:00,